User: anonymous   Login
Location: Deer Lake
(49.1830°N, 57.4330°W)
Time: 22:33:36
(UTC-02:-30)
Language:

Cosmos 1707 - Orbit

View from above orbital plane
View from above orbital plane
View from above satellite
View from above satellite

Ground track
Ground track

The orbit data is extracted from the following two-line orbital elements,

1 16326U 85113A   15210.96185394  .00001494  00000-0  86571-4 0  9999
2 16326 082.5129 163.6202 0012211 146.8035 213.3964 15.11418749613314
Epoch (UTC): 29 July 2015 23:05:04
Eccentricity: 0.0012211
inclination: 82.5129°
perigee height: 523 km
apogee height: 540 km
right ascension of ascending node: 163.6202°
argument of perigee: 146.8035°
revolutions per day: 15.11418749
mean anomaly at epoch: 213.3964°
orbit number at epoch: 61331

The dashed part of the orbit path shows where the satellite is in the earth's shadow,  

DLR